Regional Weather Roundup
Issued by NWS

Home | Current Version | Previous Version | Graphics & Text | Print | Product List | Glossary On
Versions: 1 2 3 4 5 6 7 8 9 10 11 12 13 14 15 16 17 18 19 20 21 22 23 24 25 26 27 28 29 30 31 32 33 34 35 36 37 38 39 40 41 42 43 44 45 46 47 48 49 50
000
ASUS43 KBIS 252202
RWRND

NORTH DAKOTA REGIONAL WEATHER ROUNDUP
NATIONAL WEATHER SERVICE BISMARCK ND
500 PM CDT SAT MAR 25 2017

NOTE: "FAIR" INDICATES FEW OR NO CLOUDS BELOW 12,000 FEET WITH NO
SIGNIFICANT WEATHER AND/OR OBSTRUCTIONS TO VISIBILITY.


NDZ001>003-009>011-017-252300-
NORTHWEST NORTH DAKOTA

CITY           SKY/WX    TMP DP  RH WIND       PRES   REMARKS
WILLISTON      FAIR      59  28  30 W8        29.86S
MINOT          FAIR      52  37  56 SW12      29.87S
MINOT AFB      CLOUDY    52  40  64 S13       29.86S
$$

NDZ018>021-031>035-040>046-252300-
SOUTHWEST NORTH DAKOTA

CITY           SKY/WX    TMP DP  RH WIND       PRES   REMARKS
BISMARCK       FAIR      54  30  40 S10       29.93F
DICKINSON      PTSUNNY   59  23  25 NW14      29.85S
GARRISON         N/A     47  36  65 S7        29.88F
HETTINGER ARPT SUNNY     58  34  40 SE3       29.87F
$$

NDZ004>008-012>016-024-026-027-054-252300-
NORTHEAST NORTH DAKOTA

CITY           SKY/WX    TMP DP  RH WIND       PRES   REMARKS
GRAND FORKS    CLOUDY    37  34  89 S14       30.05F
GRND FRKS AFB  CLOUDY    36  33  89 S14       30.04F
DEVILS LAKE    FAIR      39  33  79 SE14      29.96F
$$

NDZ022-023-025-028>030-036>039-047>053-252300-
SOUTHEAST NORTH DAKOTA

CITY           SKY/WX    TMP DP  RH WIND       PRES   REMARKS
FARGO          CLOUDY    41  34  76 S14       30.07F
JAMESTOWN      FAIR      43  35  73 S12       29.98F
$$




USA.gov is the U.S. government's official web portal to all federal, state and local government web resources and services.